KTPAKJQF

Guest
Details From KTPA - Tampa Intl
To KJQF - Concord Rgnl
Flight Number -
Tags Generated
Created
Modified
Stats Distance 454 nm / 842 km
Max Altitude 0 ft / 0 m
Waypoints 4
Social Downloads 0
Likes 0
Share VATSIM

Download

Looking for another format? Having issues loading an existing format? Contact us
Advertisement - Login to hide

Notes

Generated

Route

KTPA MAVLL MENIE KJQF

ID Type Via Altitude Latitude Longitude Leg Dist Tot Dist Heading (true) Name
O KTPA APT - 0 ft / 0 m 27.97083˚ -82.53608˚ - 0 nm - -
MAVLL FIX - 0 ft / 0 m 31.78541˚ -81.64255˚ 233 nm 233 nm 11° / 12° -
MENIE FIX - 0 ft / 0 m 35.24932˚ -80.74390˚ 212 nm 446 nm 12° / 12° -
O KJQF APT - 0 ft / 0 m 35.37777˚ -80.71139˚ 7 nm 454 nm 12° / 12° -

Altitude Profile

Advertisement - Login to hide

Weather


0- 5 10 15 20 25 30 35+ Temperature / ° C

Clouds and Precipitation
Forecast for 2018-05-21 06:00 UTC. Updated 2 hours ago

Ground ~20,000 ft ~40,000 ft Winds

KTPA

Details ICAO KTPA (TPA)
Name TAMPA INTL
Region United States
Timezone America/New_York (UTC-4.0)
Stats Elevation 26 ft / 8 m (AMSL)
Location 27.974892° -82.531898°
Runways 3
Magnetic Variation 5.600° W

METAR

KTPA 210653Z 10004KT 10SM BKN060 OVC075 23/21 A3004 RMK AO2 SLP173 T02280206

Decode

TAF

TAF KTPA 210520Z 2106/2212 12004KT P6SM VCSH FEW050 OVC060 FM211400 12007KT P6SM VCSH SCT025 OVC080 FM211900 13009KT 6SM SHRA VCTS SCT025CB OVC050 FM220100 12006KT P6SM VCSH SCT035 OVC100

Decode

Departure Runways

ID Width Length Bearing (true) Bearing (mag) Surface Threshold Offset Overrun Length
01L 150 ft / 46 m 11,042 ft / 3,366 m 1.72° 7.32° Concrete 0 ft / 0 m 0 ft / 0 m
01R 150 ft / 46 m 8,330 ft / 2,539 m 1.72° 7.32° Asphalt 0 ft / 0 m 0 ft / 0 m
09 150 ft / 46 m 6,987 ft / 2,130 m 91.74° 97.34° Asphalt 0 ft / 0 m 0 ft / 0 m
19L 150 ft / 46 m 8,330 ft / 2,539 m 181.73° 187.33° Asphalt 0 ft / 0 m 0 ft / 0 m
19R 150 ft / 46 m 11,042 ft / 3,366 m 181.72° 187.32° Concrete 0 ft / 0 m 0 ft / 0 m
27 150 ft / 46 m 6,987 ft / 2,130 m 271.75° 277.35° Asphalt 0 ft / 0 m 0 ft / 0 m

KJQF

Details ICAO KJQF
Name Concord Rgnl
Region United States
Timezone America/New_York (UTC-4.0)
Stats Elevation 690 ft / 210 m (AMSL)
Location 35.387774° -80.709133°
Runways 1
Magnetic Variation 7.896° W

METAR

KJQF 210735Z AUTO 16003KT 10SM CLR 18/18 A3014 RMK AO2

Decode

TAF

Not found

Destination Runways

ID Width Length Bearing (true) Bearing (mag) Surface Threshold Offset Overrun Length
02 98 ft / 30 m 7,419 ft / 2,261 m 10.42° 18.32° Asphalt 0 ft / 0 m 0 ft / 0 m
20 98 ft / 30 m 7,419 ft / 2,261 m 190.42° 198.32° Asphalt 650 ft / 198 m 0 ft / 0 m

Approach Navaids

Runway Type Ident Frequency Range Bearing (true) Bearing (mag) Slope Elevation
20 Localiser IJQF 111.95 MHz 18 nm / 33 km 190.40° 198.30° - 690 ft / 210 m (AMSL)
20 Glidescope IJQF 111.95 MHz 10 nm / 19 km 190.40° 198.30° 3.00° 690 ft / 210 m (AMSL)
20 DME IJQF 111.95 MHz 18 nm / 33 km - - - 690 ft / 210 m (AMSL)